Weather in Kostopil

Ukraine / Rovno District     50°52′36″N   26°27′23″E
temp.,
°C
wind,
m/s
gust,
m/s
humid.,
%
clouds,
%
prec.,
mm/h
press.,
hPa
HPBL,
m
19 april, mon
mon1900:00+6ene3895100 0.0 1018185
03:00+5ene479557 0.0 1018147
06:00+4ene359257 0.0 101890
09:00+8ne46795 0.0 1018426
12:00+11ese346196 0.1 10171350
15:00+11ene4461100 0.1 10161049
18:00+10ene4771100 0.3 1016350
21:00+8ene347997 0.3 101759
20 april, tue
tue2000:00+5ne228710 0.0 101616
03:00+4n118829 0.0 101510
06:00+4nne229320 0.0 101427
09:00+7ne347980 0.0 1014347
12:00+10ne3467100 0.1 1013863
15:00+11n5559100 0.2 10121335
18:00+10n456192 0.1 10111394
21:00+6n3380100 0.1 101238
21 april, wed
wed2100:00+5nw118466 0.0 101210
03:00+6w347994 0.0 101299
06:00+5w3583100 0.0 1012110
09:00+7wsw3579100 0.1 1012251
12:00+12w456598 0.5 10111146
15:00+14w5755100 2.3 10101594
18:00+13w475928 0.9 10101249
21:00+9wsw34788 1.0 101247
22 april, thu
thu2200:00+8sw499292 0.7 1012201
03:00+7sw411925 1.0 1012254
06:00+5sw499437 0.0 1013194
09:00+9sw578181 0.0 1013368
12:00+14wsw455954 0.3 10131176
15:00+14sw566590 1.5 10131204
18:00+13wsw577591 0.9 1013808
21:00+8wnw229485 1.9 101427
23 april, fri
fri2300:00+8nw3594100 0.3 1014212
03:00+7nw2593100 0.3 1014331
06:00+6nnw4586100 1.8 1014798
09:00+4nw4687100 5.8 1016628
12:00+7w4672100 0.5 10171178
15:00+9w7960100 0.8 10161442
18:00+9wnw795225 0.1 10172049
21:00+5w510705 0.1 1019349